Change the Weather History Date:

Tuesday, June 25, 2013

  Actual Average Record
Temperature  
Mean Temperature 64 °F 65 °F  
Max Temperature 70 °F 76 °F 101 °F (2006)
Min Temperature 58 °F 55 °F 44 °F (1976)
Degree Days  
Heating Degree Days 1 2  
Month to date heating degree days 49 82  
Since 1 June heating degree days 49 82  
Since 1 July heating degree days 3988 4269  
Cooling Degree Days 0 2  
Month to date cooling degree days 20 34  
Year to date cooling degree days 35 51  
Since 1 June cooling degree days 20 34  
Growing Degree Days 15 (Base 50)    
Moisture  
Dew Point 56 °F    
Average Humidity 73    
Maximum Humidity 93    
Minimum Humidity 53    
Precipitation  
Precipitation 0.07 in 0.03 in 0.29 in (1973)
Month to date precipitation 1.21 1.52  
Year to date precipitation 14.36 18.94  
Snow  
Snow 0.00 in - - ()
Month to date snowfall 0.0  
Since 1 June snowfall 0.0  
Snow Depth 0.00 in    
Sea Level Pressure  
Sea Level Pressure 29.78 in    
Wind  
Wind Speed 7 mph (SSE)    
Max Wind Speed 16 mph    
Max Gust Speed 21 mph    
Visibility 10 miles    
Events Rain    
T = Trace of Precipitation, MM = Missing Value Source: NWS Daily Summary

Daily Weather History Graph

Daily Weather History Graph

Search for Another Location

Airport or City:

Trip Planner

Search our weather history database for the weather conditions in past years. The results will help you decide how hot, cold, wet, or windy it might be!

Date:

Astronomy

Jun. 25, 2013 Rise Set
Actual Time 5:22 AM PDT 9:03 PM PDT
Civil Twilight 4:44 AM PDT 9:41 PM PDT
Nautical Twilight 3:53 AM PDT 10:32 PM PDT
Astronomical Twilight 2:43 AM PDT 11:42 PM PDT
Moon 10:41 PM PDT (6/25) 8:18 AM PDT (6/25)
Length of Visible Light 16h 57m
Length of Day
15h 41m
Waning Gibbous, 92% of the Moon is Illuminated
Jun 25
Waning Gibbous
Jun 29
Last Quarter
Jul 8
New
Jul 15
First Quarter
Jul 22
Full

Hourly Weather History & Observations

Time (PDT) Temp. Dew Point Humidity Pressure Visibility Wind Dir Wind Speed Gust Speed Precip Events Conditions
12:53 AM 57.9 °F 55.9 °F 93% 29.69 in 10.0 mi Calm Calm - N/A   Overcast
1:53 AM 59.0 °F 55.9 °F 90% 29.69 in 10.0 mi East 4.6 mph - N/A   Overcast
2:53 AM 59.0 °F 55.9 °F 90% 29.70 in 10.0 mi SE 8.1 mph - N/A   Overcast
3:53 AM 59.0 °F 55.9 °F 90% 29.70 in 10.0 mi SE 8.1 mph - N/A   Overcast
4:53 AM 60.1 °F 55.9 °F 86% 29.72 in 10.0 mi ESE 8.1 mph - N/A   Overcast
5:53 AM 60.1 °F 55.9 °F 86% 29.73 in 10.0 mi SE 5.8 mph - N/A   Overcast
6:53 AM 61.0 °F 57.0 °F 87% 29.73 in 9.0 mi SSE 6.9 mph - 0.00 in Rain Light Rain
7:53 AM 62.1 °F 57.0 °F 84% 29.73 in 10.0 mi SE 5.8 mph - 0.01 in   Overcast
8:42 AM 62.6 °F 57.2 °F 82% 29.75 in 10.0 mi South 5.8 mph - N/A   Overcast
8:53 AM 63.0 °F 55.9 °F 78% 29.75 in 10.0 mi SSE 6.9 mph - 0.00 in Rain Light Rain
9:53 AM 63.0 °F 57.0 °F 81% 29.75 in 10.0 mi SE 9.2 mph - 0.00 in   Mostly Cloudy
10:53 AM 63.0 °F 59.0 °F 87% 29.76 in 10.0 mi SE 6.9 mph - 0.00 in Rain Light Rain
11:22 AM 64.4 °F 57.2 °F 77% 29.77 in 10.0 mi South 8.1 mph - 0.01 in   Overcast
11:53 AM 64.9 °F 55.0 °F 70% 29.76 in 10.0 mi SE 9.2 mph - 0.01 in   Mostly Cloudy
12:53 PM 63.0 °F 57.9 °F 84% 29.78 in 5.0 mi SE 9.2 mph - 0.02 in Rain Light Rain
1:53 PM 64.0 °F 59.0 °F 84% 29.79 in 10.0 mi SE 8.1 mph - 0.03 in Rain Light Rain
2:53 PM 64.9 °F 60.1 °F 84% 29.78 in 10.0 mi East 6.9 mph - 0.00 in   Mostly Cloudy
3:53 PM 64.9 °F 57.9 °F 78% 29.80 in 10.0 mi SSE 13.8 mph - 0.00 in Rain Light Rain
4:53 PM 68.0 °F 57.9 °F 70% 29.81 in 10.0 mi SSE 10.4 mph - 0.00 in   Mostly Cloudy
5:53 PM 69.1 °F 55.0 °F 61% 29.81 in 10.0 mi SSW 10.4 mph - N/A   Mostly Cloudy
6:53 PM 69.1 °F 52.0 °F 54% 29.82 in 10.0 mi SW 10.4 mph - N/A   Mostly Cloudy
7:53 PM 66.9 °F 52.0 °F 59% 29.84 in 10.0 mi SSW 8.1 mph - N/A   Mostly Cloudy
8:53 PM 64.9 °F 52.0 °F 63% 29.85 in 10.0 mi South 9.2 mph - N/A   Mostly Cloudy
9:53 PM 64.0 °F 52.0 °F 65% 29.87 in 10.0 mi SSE 5.8 mph - N/A   Overcast
10:53 PM 62.1 °F 55.0 °F 78% 29.88 in 10.0 mi SSE 6.9 mph - 0.01 in Rain Light Rain
11:53 PM 61.0 °F 57.0 °F 87% 29.87 in 10.0 mi East 8.1 mph - 0.00 in   Overcast